Tehachapi, CA

1:30 AM PST on February 07, 2016 (GMT -0800)
Tehachapi Municipal

Weather History for KTSP - November, 2011

Change the Weather History Date:

Wednesday, November 30, 2011

  Actual Average Record
Temperature  
Mean Temperature 42 °F -  
Max Temperature 51 °F 51 °F 62 °F (2012)
Min Temperature 33 °F 32 °F 19 °F (2015)
Degree Days  
Heating Degree Days 23    
Moisture  
Dew Point 30 °F    
Average Humidity 70    
Maximum Humidity 100    
Minimum Humidity 37    
Precipitation  
Precipitation 0.01 in - - ()
Sea Level Pressure  
Sea Level Pressure 30.04 in    
Wind  
Wind Speed 10 mph (NW)    
Max Wind Speed 24 mph    
Max Gust Speed 32 mph    
Visibility 6 miles    
Events Fog , Rain    
Averages and records for this station are not official NWS values.
T = Trace of Precipitation, MM = Missing Value Source: NWS Daily Summary

Daily Weather History Graph

Daily Weather History Graph

Search for Another Location

Airport or City:

Trip Planner

Search our weather history database for the weather conditions in past years. The results will help you decide how hot, cold, wet, or windy it might be!

Date:

Astronomy

Nov. 30, 2011 Rise Set
Actual Time 6:42 AM PST 4:41 PM PST
Civil Twilight 6:14 AM PST 5:09 PM PST
Nautical Twilight 5:43 AM PST 5:40 PM PST
Astronomical Twilight 5:13 AM PST 6:11 PM PST
Moon 11:09 AM PST (11/30) 10:36 PM PST (11/30)
Length of Visible Light 10h 54m
Length of Day
9h 59m
Waxing Crescent, 34% of the Moon is Illuminated
Nov 30
Waxing Crescent
Dec 2
First Quarter
Dec 10
Full
Dec 17
Last Quarter
Dec 24
New

Hourly Weather History & Observations

Time (PST) Temp. Windchill Dew Point Humidity Pressure Visibility Wind Dir Wind Speed Gust Speed Precip Events Conditions
12:35 AM 37.4 °F 33.8 °F 24.8 °F 60% 30.19 in 10.0 mi NNW 4.6 mph - N/A   Clear
12:55 AM 46.4 °F - 24.8 °F 43% 30.19 in 10.0 mi Calm Calm - N/A   Clear
1:15 AM 48.2 °F - 24.8 °F 40% 30.19 in 10.0 mi WNW 5.8 mph - N/A   Clear
1:35 AM 44.6 °F - 24.8 °F 46% 30.18 in 10.0 mi Calm Calm - N/A   Clear
1:55 AM 44.6 °F 42.2 °F 24.8 °F 46% 30.17 in 10.0 mi WSW 4.6 mph - N/A   Clear
2:15 AM 35.6 °F 32.8 °F 24.8 °F 65% 30.16 in 10.0 mi SE 3.5 mph - N/A   Clear
2:35 AM 35.6 °F 32.8 °F 23.0 °F 60% 30.16 in 10.0 mi SE 3.5 mph - N/A   Clear
2:55 AM 33.8 °F 30.8 °F 23.0 °F 65% 30.15 in 10.0 mi SW 3.5 mph - N/A   Clear
3:15 AM 44.6 °F 40.7 °F 24.8 °F 46% 30.16 in 10.0 mi WSW 6.9 mph - N/A   Clear
3:35 AM 44.6 °F 41.4 °F 24.8 °F 46% 30.15 in 10.0 mi West 5.8 mph - N/A   Clear
3:55 AM 44.6 °F 40.7 °F 24.8 °F 46% 30.15 in 10.0 mi WSW 6.9 mph - N/A   Clear
4:15 AM 42.8 °F - 24.8 °F 49% 30.14 in 10.0 mi Calm Calm - N/A   Clear
4:35 AM 42.8 °F 41.1 °F 23.0 °F 46% 30.13 in 10.0 mi North 3.5 mph - N/A   Clear
4:55 AM 41.0 °F 35.8 °F 23.0 °F 49% 30.12 in 10.0 mi NNW 8.1 mph - N/A   Clear
5:15 AM 44.6 °F 42.2 °F 21.2 °F 39% 30.11 in 10.0 mi NW 4.6 mph - N/A   Clear
5:35 AM 46.4 °F 41.9 °F 21.2 °F 37% 30.12 in 10.0 mi NW 9.2 mph - N/A   Clear
5:55 AM 46.4 °F 41.1 °F 21.2 °F 37% 30.12 in 10.0 mi NW 11.5 mph - N/A   Clear
6:15 AM 48.2 °F - 23.0 °F 37% 30.12 in 10.0 mi NW 15.0 mph - N/A   Clear
6:35 AM 44.6 °F 38.4 °F 23.0 °F 43% 30.12 in 10.0 mi NW 12.7 mph - N/A   Clear
6:55 AM 42.8 °F 37.0 °F 24.8 °F 49% 30.12 in 9.0 mi NW 10.4 mph - N/A   Clear
7:15 AM 42.8 °F 36.6 °F 24.8 °F 49% 30.12 in 9.0 mi NW 11.5 mph - N/A   Clear
7:35 AM 42.8 °F 36.2 °F 24.8 °F 49% 30.11 in 9.0 mi NW 12.7 mph - N/A   Clear
7:55 AM 44.6 °F 39.2 °F 26.6 °F 49% 30.10 in 9.0 mi NW 10.4 mph - N/A   Clear
8:15 AM 44.6 °F 37.4 °F 26.6 °F 49% 30.09 in 8.0 mi NNW 16.1 mph - N/A   Clear
8:35 AM 46.4 °F 40.1 °F 26.6 °F 46% 30.09 in 8.0 mi NW 15.0 mph - N/A   Clear
9:15 AM 50.0 °F - 26.6 °F 40% 30.08 in 8.0 mi NW 17.3 mph 21.9 mph N/A   Clear
9:35 AM 51.8 °F - 26.6 °F 38% 30.07 in 8.0 mi NW 12.7 mph - N/A   Clear
9:55 AM 51.8 °F - 26.6 °F 38% 30.07 in 10.0 mi NW 19.6 mph - N/A   Clear
10:15 AM 51.8 °F - 26.6 °F 38% 30.06 in 7.0 mi NW 18.4 mph 24.2 mph N/A   Clear
10:35 AM 50.0 °F - 28.4 °F 43% 30.06 in 9.0 mi NW 21.9 mph 28.8 mph N/A   Clear
10:55 AM 46.4 °F 39.5 °F 32.0 °F 57% 30.06 in 7.0 mi NW 17.3 mph 21.9 mph N/A   Clear
11:15 AM 48.2 °F - 32.0 °F 54% 30.05 in 7.0 mi NW 13.8 mph - N/A   Clear
11:35 AM 46.4 °F 38.3 °F 33.8 °F 62% 30.05 in 4.0 mi NW 23.0 mph 26.5 mph N/A   Haze
11:55 AM 37.4 °F 27.5 °F 35.6 °F 93% 30.02 in 0.2 mi NW 18.4 mph 26.5 mph N/A Rain Light Rain
12:15 PM 39.2 °F 29.8 °F 35.6 °F 87% 29.99 in 0.2 mi NW 18.4 mph - N/A Fog Fog
12:35 PM 37.4 °F 27.2 °F 35.6 °F 93% 30.00 in 0.2 mi NW 19.6 mph 28.8 mph N/A Rain Light Rain
12:55 PM 35.6 °F 23.7 °F 35.6 °F 100% 30.01 in 0.2 mi NW 24.2 mph 28.8 mph N/A Rain Light Rain
1:15 PM 37.4 °F 28.5 °F 35.6 °F 93% 29.98 in 0.2 mi NW 15.0 mph - N/A Rain Light Rain
1:35 PM 37.4 °F 28.2 °F 35.6 °F 93% 29.96 in 0.2 mi WNW 16.1 mph 23.0 mph N/A Rain Light Rain
1:55 PM 35.6 °F 25.5 °F 35.6 °F 100% 29.95 in 0.2 mi WNW 17.3 mph 23.0 mph N/A Rain Light Rain
2:15 PM 35.6 °F 25.5 °F 35.6 °F 100% 29.94 in 0.2 mi WNW 17.3 mph 23.0 mph N/A Rain Light Rain
2:35 PM 35.6 °F 25.2 °F 35.6 °F 100% 29.93 in 0.2 mi NW 18.4 mph 25.3 mph N/A Rain Light Rain
2:55 PM 35.6 °F 24.2 °F 35.6 °F 100% 29.95 in 0.2 mi NW 21.9 mph 28.8 mph 0.01 in Rain Light Rain
3:15 PM 35.6 °F 23.7 °F 35.6 °F 100% 29.95 in 0.2 mi NW 24.2 mph 32.2 mph N/A Rain Light Rain
3:35 PM 35.6 °F 23.7 °F 35.6 °F 100% 29.97 in 0.2 mi NW 24.2 mph 31.1 mph N/A Rain Light Rain
3:55 PM 33.8 °F 21.6 °F 33.8 °F 100% 29.97 in 0.5 mi NW 23.0 mph 29.9 mph N/A Fog Fog
4:15 PM 33.8 °F 21.6 °F 33.8 °F 100% 29.95 in 0.8 mi WNW 23.0 mph 31.1 mph N/A Rain Light Rain
4:35 PM 33.8 °F 22.5 °F 33.8 °F 100% 29.94 in 0.2 mi NW 19.6 mph 27.6 mph N/A Rain Light Rain
4:55 PM 33.8 °F 23.5 °F 33.8 °F 100% 29.95 in 0.5 mi NW 16.1 mph 23.0 mph N/A Fog Fog
5:15 PM 33.8 °F 23.5 °F 33.8 °F 100% 29.96 in 1.8 mi NW 16.1 mph 25.3 mph N/A   Overcast
5:35 PM 33.8 °F 23.9 °F 33.8 °F 100% 29.95 in 2.0 mi WNW 15.0 mph 19.6 mph N/A   Mostly Cloudy
5:55 PM 33.8 °F 25.3 °F 33.8 °F 100% 29.94 in 3.0 mi NW 11.5 mph - N/A   Partly Cloudy
6:15 PM 33.8 °F 24.8 °F 33.8 °F 100% 29.94 in 3.0 mi WNW 12.7 mph - N/A   Partly Cloudy
6:35 PM 35.6 °F 27.1 °F 35.6 °F 100% 29.94 in 2.0 mi West 12.7 mph 18.4 mph N/A   Clear
6:55 PM 35.6 °F 27.1 °F 35.6 °F 100% 29.94 in 5.0 mi WNW 12.7 mph 19.6 mph N/A   Scattered Clouds
7:35 PM 35.6 °F 29.2 °F 33.8 °F 93% 29.93 in 3.0 mi NW 8.1 mph - N/A   Clear
8:15 PM 35.6 °F 29.9 °F 33.8 °F 93% 29.93 in 3.0 mi WNW 6.9 mph - N/A   Partly Cloudy
8:35 PM 35.6 °F 28.0 °F 33.8 °F 93% 29.95 in 3.0 mi NW 10.4 mph - N/A   Partly Cloudy
8:55 PM 33.8 °F 26.4 °F 33.8 °F 100% 29.95 in 2.5 mi WNW 9.2 mph - N/A   Partly Cloudy
9:15 PM 33.8 °F 25.8 °F 33.8 °F 100% 29.93 in 1.8 mi NW 10.4 mph - N/A   Clear
9:35 PM 33.8 °F 26.4 °F 33.8 °F 100% 29.94 in 0.8 mi NW 9.2 mph - N/A   Mostly Cloudy
9:55 PM 33.8 °F 24.8 °F 33.8 °F 100% 29.94 in 0.2 mi NW 12.7 mph - N/A Fog Fog
10:15 PM 33.8 °F 26.4 °F 33.8 °F 100% 29.95 in 0.5 mi WNW 9.2 mph - N/A Fog Fog
10:35 PM 32.0 °F 23.6 °F 32.0 °F 100% 29.95 in 0.2 mi NW 10.4 mph - N/A Fog Fog
11:15 PM 32.0 °F 26.4 °F 32.0 °F 100% 29.93 in 0.8 mi NW 5.8 mph - N/A   Overcast
11:35 PM 32.0 °F 25.6 °F 32.0 °F 100% 29.93 in 2.0 mi NW 6.9 mph - N/A   Mostly Cloudy
11:55 PM 32.0 °F 25.6 °F 32.0 °F 100% 29.93 in 1.5 mi West 6.9 mph - N/A   Overcast